Location: Copper Breaks State Park
(34.1132°N, 99.7492°W)
Time: 00:41:40
(UTC-06:00)

Amateur Radio Satellites - All Passes

Search period start: 20 December 2014 00:11
Search period end: 21 December 2014 00:11
Location: Copper Breaks State Park, 34.1132°N, 99.7492°W

Satellite Date Start Highest point End Downlink Frequencies (MHz)
Time Altitude Azimuth
QB50P2 20 Dec 00:17:40 00:21:22 29° 288° (WNW) 00:25:05 145.880/145.840
SWISSCUBE 20 Dec 00:19:46 00:22:57 18° 67° (ENE) 00:26:07 437.505
ITUPSAT 1 20 Dec 00:20:10 00:23:05 16° 66° (ENE) 00:26:01 437.325
CUBEBUG 1 20 Dec 00:23:14 00:25:38 14° 266° (W) 00:28:02 437.445
ANTELSAT 20 Dec 00:26:14 00:29:27 19° 292° (WNW) 00:32:41 437.575/2403.000
POLYITAN 1 20 Dec 00:26:24 00:29:51 24° 290° (WNW) 00:33:18 437.675
NANOSAT C BR1 20 Dec 00:29:31 00:32:49 22° 290° (WNW) 00:36:07 145.865
AUBIESAT-1 20 Dec 00:30:44 00:33:01 13° 60° (ENE) 00:35:19 437.475
BEESAT 20 Dec 00:43:51 00:47:58 29° 70° (ENE) 00:52:06 436.000
QB50P1 20 Dec 00:44:28 00:46:59 16° 292° (WNW) 00:49:30 145.935-145.965
AIST 2 20 Dec 00:52:17 00:55:32 21° 250° (WSW) 00:58:43 435.215
M-CUBED/EXP-1 PRIME 20 Dec 00:53:49 00:57:44 26° 65° (ENE) 01:01:45 437.505
PCSat 20 Dec 01:16:16 01:20:11 21° 254° (WSW) 01:24:05 145.827
Oscar 19 20 Dec 01:17:18 01:21:21 23° 95° (E) 01:25:23 437.125/150
YUBILEINY 20 Dec 01:37:55 01:45:53 39° 284° (WNW) 01:53:53 435.215
O/OREOS (USA 219) 20 Dec 01:40:34 01:44:49 43° 293° (WNW) 01:49:05 437.305
SWISSCUBE 20 Dec 01:55:56 02:00:27 41° 261° (W) 02:04:58 437.505
ITUPSAT 1 20 Dec 01:55:58 02:00:34 45° 260° (W) 02:05:11 437.325
STARS 20 Dec 01:59:11 02:02:35 23° 69° (ENE) 02:06:01 437.465
KKS-1 20 Dec 02:00:27 02:04:29 36° 72° (ENE) 02:08:33 437.445
AUBIESAT-1 20 Dec 02:02:37 02:07:20 65° 255° (WSW) 02:12:12 437.475
BEESAT 20 Dec 02:21:56 02:25:45 24° 264° (W) 02:29:35 436.000
M-CUBED/EXP-1 PRIME 20 Dec 02:28:18 02:32:31 31° 259° (W) 02:36:52 437.505
VERMONT LUNAR 20 Dec 02:44:25 02:47:33 31° 147° (SSE) 02:50:43 437.305
PHONESAT 2.4 20 Dec 02:54:52 02:57:50 24° 145° (SE) 03:00:49 2401.200-2431.200
Oscar 19 20 Dec 02:56:00 03:00:42 35° 289° (WNW) 03:05:23 437.125/150
Gurwin Techsat 1B 20 Dec 03:00:26 03:05:37 52° 100° (E) 03:10:45 435.225
ITAMSAT 1 20 Dec 03:09:40 03:14:50 75° 285° (WNW) 03:19:59 435.822/435.867
HORYU 2 20 Dec 03:25:54 03:30:00 33° 98° (E) 03:34:04 437.375
STARS 20 Dec 03:35:17 03:38:55 26° 263° (W) 03:42:34 437.465
KKS-1 20 Dec 03:38:28 03:41:13 16° 266° (W) 03:43:58 437.445
AO-7 20 Dec 03:54:48 04:01:54 30° 98° (E) 04:08:56 29.400- 29.500
VERMONT LUNAR 20 Dec 04:22:20 04:25:47 52° 341° (NNW) 04:29:15 437.305
JAS-2 20 Dec 04:31:42 04:34:21 14° 91° (E) 04:36:56 435.910
PHONESAT 2.4 20 Dec 04:32:44 04:36:20 64° 339° (NNW) 04:39:57 2401.200-2431.200
AIST 1 20 Dec 04:38:20 04:42:32 57° 266° (W) 04:46:41
MOZHAYETS 4 20 Dec 04:40:45 04:45:19 61° 75° (ENE) 04:49:55
Gurwin Techsat 1B 20 Dec 04:41:49 04:45:05 17° 295° (WNW) 04:48:22 435.225
HORYU 2 20 Dec 05:03:14 05:06:23 19° 292° (WNW) 05:09:32 437.375
GONETS M04 20 Dec 05:35:36 05:43:54 48° 89° (E) 05:52:13
PRISM 20 Dec 05:39:27 05:43:20 37° 73° (ENE) 05:47:14 437.425
SO-50 20 Dec 05:39:38 05:42:47 17° 48° (NE) 05:45:56 436.795
AO-7 20 Dec 05:46:50 05:54:51 53° 293° (WNW) 06:02:51 29.400- 29.500
STRAND 1 20 Dec 05:58:26 06:02:39 27° 69° (ENE) 06:06:52 437.568
Cubesat XI-IV 20 Dec 06:00:54 06:04:53 21° 95° (E) 06:08:51 437.490
VERMONT LUNAR 20 Dec 06:01:27 06:04:32 27° 358° (N) 06:07:38 437.305
CUBESAT XI-V 20 Dec 06:02:37 06:06:43 31° 71° (ENE) 06:10:48 437.345
PHONESAT 2.4 20 Dec 06:12:11 06:15:24 29° 355° (N) 06:18:38 2401.200-2431.200
JAS-2 20 Dec 06:14:32 06:19:57 54° 287° (WNW) 06:25:00 435.910
MOZHAYETS 4 20 Dec 06:22:17 06:22:52 10° 269° (W) 06:23:26
CUTE-I 20 Dec 06:33:28 06:38:33 45° 100° (E) 06:43:36 437.470
PRISM 20 Dec 07:16:37 07:18:57 15° 266° (W) 07:21:18 437.425
SO-50 20 Dec 07:18:52 07:23:41 58° 245° (WSW) 07:28:28 436.795
GONETS M04 20 Dec 07:33:11 07:40:50 33° 286° (WNW) 07:48:33
STRAND 1 20 Dec 07:37:14 07:41:41 30° 263° (W) 07:46:08 437.568
VERMONT LUNAR 20 Dec 07:40:00 07:43:22 40° 15° (NNE) 07:46:43 437.305
Cubesat XI-IV 20 Dec 07:40:08 07:45:02 39° 289° (WNW) 07:49:56 437.490
CUBESAT XI-V 20 Dec 07:40:35 07:44:07 21° 265° (W) 07:47:40 437.345
PHONESAT 2.4 20 Dec 07:51:14 07:54:38 37° 13° (NNE) 07:58:01 2401.200-2431.200
HO-68 20 Dec 07:59:52 08:02:08 12° 91° (E) 08:04:23 435.675
CUTE-I 20 Dec 08:14:32 08:18:14 20° 294° (WNW) 08:21:56 437.470
BRITE-PL 20 Dec 08:24:20 08:27:15 16° 95° (E) 08:30:17 437.365/2234.400
COMPASS 1 20 Dec 08:38:06 08:39:10 11° 92° (E) 08:40:13 437.405
SEEDS 20 Dec 08:41:39 08:44:11 15° 94° (E) 08:46:43 437.485
CUTE 1.7 + AOD 2 20 Dec 08:43:57 08:47:05 20° 95° (E) 08:50:12 437.475
GOMX 1 20 Dec 08:52:37 08:56:28 23° 96° (E) 09:00:29 467.674
MaSat-1 20 Dec 09:00:40 09:03:01 59° 111° (ESE) 09:05:16 437.345
VERMONT LUNAR 20 Dec 09:18:19 09:21:44 47° 210° (SSW) 09:25:08 437.305
Oscar 11 20 Dec 09:19:16 09:21:45 15° 93° (E) 09:24:14 145.826/435.025
DOVE 4 20 Dec 09:19:43 09:24:05 33° 98° (E) 09:28:38 437.250
UKube-1 20 Dec 09:28:01 09:29:57 13° 94° (E) 09:31:54 .
PHONESAT 2.4 20 Dec 09:29:52 09:33:27 62° 208° (SSW) 09:37:03 2401.200-2431.200
DANDE 20 Dec 09:32:10 09:34:29 18° 85° (E) 09:37:14 436.750
CUBEBUG 2 20 Dec 09:35:43 09:38:37 16° 94° (E) 09:41:32 437.445
AAUSAT CUBESAT 2 20 Dec 09:35:55 09:40:03 51° 100° (E) 09:44:09 437.432
POLYITAN 1 20 Dec 09:42:36 09:44:03 12° 66° (ENE) 09:45:30 437.675
HO-68 20 Dec 09:43:25 09:50:36 87° 106° (ESE) 09:57:45 435.675
NANOSAT C BR1 20 Dec 09:44:56 09:46:38 12° 66° (ENE) 09:48:19 145.865
ANTELSAT 20 Dec 09:45:09 09:48:25 21° 69° (ENE) 09:51:44 437.575/2403.000
CANX-2 20 Dec 09:47:55 09:52:11 60° 284° (WNW) 09:56:25 2200.000
CINEMA 3 20 Dec 09:48:15 09:52:44 38° 98° (E) 09:57:20 145.822/145.860
ZACube-1 20 Dec 09:48:21 09:51:02 15° 94° (E) 09:53:43 437.345
QB50P1 20 Dec 09:58:00 10:00:51 18° 69° (ENE) 10:03:41 145.935-145.965
YUBILEINY 20 Dec 09:58:02 10:02:26 15° 66° (ENE) 10:06:48 435.215
BRITE-PL 20 Dec 10:01:17 10:05:50 46° 285° (WNW) 10:10:44 437.365/2234.400
COMPASS 1 20 Dec 10:11:00 10:15:07 49° 285° (WNW) 10:19:11 437.405
UWE-3 20 Dec 10:13:35 10:17:52 36° 98° (E) 10:22:10 435.000/436.395/437.385
FUNcube-1 20 Dec 10:14:05 10:18:05 30° 97° (E) 10:22:07 145.935
O/OREOS (USA 219) 20 Dec 10:16:08 10:18:49 15° 60° (ENE) 10:21:30 437.305
SEEDS 20 Dec 10:16:11 10:20:06 35° 287° (WNW) 10:23:59 437.485
CUTE 1.7 + AOD 2 20 Dec 10:19:16 10:22:58 28° 288° (WNW) 10:26:39 437.475
TIGRISAT 20 Dec 10:19:51 10:24:02 52° 74° (ENE) 10:28:19 435.000
CUSAT 1 20 Dec 10:23:58 10:27:15 58° 282° (WNW) 10:31:36 437.405
POPSAT HIP 1 20 Dec 10:25:27 10:29:20 37° 73° (ENE) 10:33:13 437.405
DELFI C3 20 Dec 10:29:47 10:33:56 88° 284° (WNW) 10:38:01 145.870
GOMX 1 20 Dec 10:30:15 10:34:31 33° 287° (WNW) 10:39:03 467.674
DX 1 20 Dec 10:30:28 10:34:50 79° 103° (ESE) 10:39:10 434.975-435.025
AISAT 20 Dec 10:30:53 10:34:28 24° 96° (E) 10:38:04 437.250
50 SAT 20 Dec 10:32:18 10:35:24 20° 95° (E) 10:38:29 437.505
UNISAT 6 20 Dec 10:48:41 10:52:59 68° 259° (W) 10:57:25 437.425
HUMSAT D 20 Dec 10:50:40 10:54:50 45° 99° (E) 10:59:00 437.325/437.525
DUCHIFAT 1 20 Dec 10:53:17 10:57:29 85° 77° (ENE) 11:01:42 145.980
Oscar 11 20 Dec 10:53:59 10:58:02 38° 287° (WNW) 11:02:03 145.826/435.025
BUGSAT 1 20 Dec 10:54:12 10:58:17 69° 76° (ENE) 11:02:20 437.445
DOVE 4 20 Dec 10:57:51 11:01:38 23° 290° (WNW) 11:05:34 437.250
UKube-1 20 Dec 11:02:10 11:06:17 43° 287° (WNW) 11:10:23 .
QB50P2 20 Dec 11:06:37 11:10:47 63° 259° (W) 11:14:59 145.880/145.840
CUBEBUG 2 20 Dec 11:11:01 11:15:24 42° 287° (WNW) 11:19:51 437.445
PHONESAT 2.4 20 Dec 11:11:32 11:11:40 10° 221° (SW) 11:11:47 2401.200-2431.200
AAUSAT CUBESAT 2 20 Dec 11:13:58 11:15:13 11° 294° (WNW) 11:16:28 437.432
POLYITAN 1 20 Dec 11:15:28 11:19:31 48° 260° (W) 11:23:37 437.675
DANDE 20 Dec 11:15:39 11:17:52 16° 293° (WNW) 11:20:27 436.750
NANOSAT C BR1 20 Dec 11:18:02 11:22:04 45° 260° (W) 11:26:07 145.865
ANTELSAT 20 Dec 11:21:18 11:25:01 28° 264° (W) 11:28:49 437.575/2403.000
ZACube-1 20 Dec 11:23:14 11:27:30 41° 287° (WNW) 11:31:48 437.345
VELOX 1 20 Dec 11:23:41 11:28:07 81° 284° (WNW) 11:32:32 145.980
ESTCUBE 1 20 Dec 11:25:08 11:29:19 38° 98° (E) 11:33:28 437.505/2401.250
CINEMA 3 20 Dec 11:26:16 11:29:38 19° 291° (WNW) 11:33:04 145.822/145.860
QB50P1 20 Dec 11:32:46 11:36:29 30° 262° (W) 11:40:12 145.935-145.965
HO-68 20 Dec 11:33:31 11:37:21 16° 302° (WNW) 11:41:11 435.675
RS-15 20 Dec 11:46:29 11:57:11 61° 112° (ESE) 12:07:48 29.354- 29.394
TISAT 1 20 Dec 11:46:42 11:48:44 13° 93° (E) 11:50:45 437.305
SPROUT 20 Dec 11:48:53 11:50:58 13° 93° (E) 11:53:03 437.525
FUNcube-1 20 Dec 11:50:47 11:54:13 22° 290° (WNW) 11:57:40 145.935
UWE-3 20 Dec 11:50:56 11:54:06 19° 291° (WNW) 11:57:17 435.000/436.395/437.385
YUBILEINY 20 Dec 11:51:40 12:00:24 88° 85° (E) 12:09:07 435.215
O/OREOS (USA 219) 20 Dec 11:54:07 11:58:24 43° 255° (WSW) 12:02:41 437.305
TIGRISAT 20 Dec 12:00:11 12:01:05 11° 269° (W) 12:01:59 435.000
POPSAT HIP 1 20 Dec 12:03:09 12:05:20 14° 266° (W) 12:07:32 437.405
50 SAT 20 Dec 12:07:06 12:10:33 26° 289° (WNW) 12:13:59 437.505
AISAT 20 Dec 12:07:22 12:10:59 25° 290° (WNW) 12:14:36 437.250
CUBEBUG 1 20 Dec 12:13:54 12:18:09 57° 285° (WNW) 12:22:24 437.445
JUGNU 20 Dec 12:15:01 12:18:28 16° 169° (S) 12:21:55 437.505
HUMSAT D 20 Dec 12:28:06 12:30:12 13° 293° (WNW) 12:32:19 437.325/437.525
Oscar 19 20 Dec 12:30:50 12:34:47 23° 68° (ENE) 12:38:47 437.125/150
ITAMSAT 1 20 Dec 12:48:24 12:50:14 12° 63° (ENE) 12:52:03 435.822/435.867
ISS 20 Dec 12:49:26 12:51:54 20° 129° (SE) 12:54:22 145.825
BEESAT 3 20 Dec 13:02:55 13:06:34 33° 113° (ESE) 13:10:17 437.485
ESTCUBE 1 20 Dec 13:03:01 13:05:50 17° 293° (WNW) 13:08:39 437.505/2401.250
AIST 2 20 Dec 13:09:40 13:12:05 15° 108° (ESE) 13:14:32 435.215
SRMSAT 20 Dec 13:18:33 13:21:24 14° 167° (SSE) 13:24:15 437.500
TISAT 1 20 Dec 13:20:44 13:24:41 40° 287° (WNW) 13:28:38 437.305
SPROUT 20 Dec 13:23:09 13:27:12 41° 287° (WNW) 13:31:14 437.525
BEESAT 2 20 Dec 13:42:02 13:46:08 88° 117° (ESE) 13:50:18 435.950
AUBIESAT-1 20 Dec 13:51:31 13:53:31 13° 96° (E) 13:55:26 437.475
YUBILEINY 20 Dec 13:51:39 13:55:55 15° 281° (W) 14:00:12 435.215
SWISSCUBE 20 Dec 13:59:55 14:04:41 69° 102° (ESE) 14:09:24 437.505
RS-15 20 Dec 14:00:15 14:10:00 36° 313° (NW) 14:19:51 29.354- 29.394
ITUPSAT 1 20 Dec 14:00:19 14:05:03 63° 101° (ESE) 14:09:44 437.325
JUGNU 20 Dec 14:02:34 14:06:49 20° 179° (S) 14:11:03 437.505
Oscar 19 20 Dec 14:09:13 14:13:52 35° 262° (W) 14:18:35 437.125/150
PCSat 20 Dec 14:09:30 14:14:55 88° 114° (ESE) 14:20:21 145.827
M-CUBED/EXP-1 PRIME 20 Dec 14:15:34 14:19:19 30° 101° (E) 14:22:47 437.505
Gurwin Techsat 1B 20 Dec 14:17:45 14:22:56 57° 74° (ENE) 14:28:08 435.225
HORYU 2 20 Dec 14:21:36 14:24:53 21° 68° (ENE) 14:28:11 437.375
ITAMSAT 1 20 Dec 14:23:53 14:29:03 73° 258° (WSW) 14:34:14 435.822/435.867
BEESAT 20 Dec 14:25:00 14:29:45 68° 285° (WNW) 14:34:27 436.000
ISS 20 Dec 14:25:21 14:28:19 31° 323° (NW) 14:31:18 145.825
BEESAT 3 20 Dec 14:41:51 14:44:48 19° 308° (NW) 14:47:47 437.485
AIST 2 20 Dec 14:46:21 14:50:19 40° 303° (WNW) 14:54:22 435.215
AO-7 20 Dec 14:50:06 14:57:03 31° 61° (ENE) 15:04:00 29.400- 29.500
SRMSAT 20 Dec 15:05:44 15:09:53 20° 177° (S) 15:14:02 437.500
AUBIESAT-1 20 Dec 15:24:46 15:28:43 38° 293° (WNW) 15:32:20 437.475
STARS 20 Dec 15:28:09 15:32:36 78° 102° (ESE) 15:37:03 437.465
KKS-1 20 Dec 15:31:33 15:35:59 62° 285° (WNW) 15:40:23 437.445
ITUPSAT 1 20 Dec 15:40:41 15:42:21 12° 296° (WNW) 15:44:01 437.325
SWISSCUBE 20 Dec 15:40:57 15:41:54 11° 296° (WNW) 15:42:50 437.505
M-CUBED/EXP-1 PRIME 20 Dec 15:51:07 15:54:03 18° 298° (WNW) 15:56:49 437.505
JUGNU 20 Dec 15:51:29 15:55:10 17° 189° (S) 15:58:51 437.505
GONETS M04 20 Dec 15:52:03 15:57:43 18° 68° (ENE) 16:03:19
PCSat 20 Dec 15:56:47 15:59:01 13° 312° (NW) 16:01:17 145.827
HORYU 2 20 Dec 15:57:25 16:01:19 30° 262° (W) 16:05:16 437.375
Gurwin Techsat 1B 20 Dec 16:00:27 16:03:12 14° 268° (W) 16:05:57 435.225
JAS-2 20 Dec 16:20:10 16:27:23 45° 71° (ENE) 16:34:04 435.910
RS-15 20 Dec 16:23:39 16:27:11 12° 346° (NNW) 16:30:44 29.354- 29.394
MOZHAYETS 4 20 Dec 16:40:51 16:44:11 20° 94° (E) 16:47:29
AO-7 20 Dec 16:41:18 16:49:21 54° 257° (WSW) 16:57:29 29.400- 29.500
SRMSAT 20 Dec 16:54:28 16:58:24 18° 187° (S) 17:02:18 437.500
AIST 1 20 Dec 17:03:40 17:08:03 82° 276° (W) 17:12:26
Cubesat XI-IV 20 Dec 17:19:25 17:23:42 25° 68° (ENE) 17:27:59 437.490
GONETS M04 20 Dec 17:46:40 17:55:25 79° 266° (W) 18:04:05
CUTE-I 20 Dec 17:51:41 17:56:49 51° 73° (ENE) 18:01:57 437.470
JAS-2 20 Dec 18:05:37 18:12:21 32° 263° (W) 18:18:42 435.910
STRAND 1 20 Dec 18:14:47 18:16:20 11° 92° (E) 18:17:53 437.568
MOZHAYETS 4 20 Dec 18:17:19 18:21:25 32° 288° (WNW) 18:25:29
MaSat-1 20 Dec 18:34:38 18:36:39 22° 64° (ENE) 18:38:47 437.345
RS-15 20 Dec 18:40:57 18:46:55 15° 25° (NNE) 18:52:59 29.354- 29.394
SRMSAT 20 Dec 18:45:34 18:46:50 11° 196° (SSW) 18:48:07 437.500
Cubesat XI-IV 20 Dec 18:58:47 19:03:34 34° 262° (W) 19:08:23 437.490
PRISM 20 Dec 19:01:25 19:05:33 75° 284° (WNW) 19:09:39 437.425
CUSAT 1 20 Dec 19:24:15 19:28:31 15° 67° (ENE) 19:32:56 437.405
CUTE-I 20 Dec 19:33:55 19:37:06 16° 267° (W) 19:40:19 437.470
CUBESAT XI-V 20 Dec 19:39:58 19:44:31 63° 285° (WNW) 19:49:02 437.345
GONETS M04 20 Dec 19:48:26 19:50:40 11° 283° (WNW) 19:52:54
STRAND 1 20 Dec 19:50:51 19:55:53 65° 286° (WNW) 20:00:55 437.568
GOMX 1 20 Dec 19:59:37 20:01:35 13° 67° (ENE) 20:03:33 467.674
HO-68 20 Dec 20:07:46 20:14:30 45° 68° (ENE) 20:21:14 435.675
DANDE 20 Dec 20:14:06 20:21:02 32° 74° (ENE) 20:28:31 436.750
DOVE 4 20 Dec 20:23:37 20:26:28 18° 69° (ENE) 20:29:20 437.250
AAUSAT CUBESAT 2 20 Dec 20:24:17 20:27:33 22° 70° (ENE) 20:30:49 437.432
CANX-2 20 Dec 20:37:10 20:41:20 58° 75° (ENE) 20:45:33 2200.000
CINEMA 3 20 Dec 20:47:58 20:51:01 20° 69° (ENE) 20:54:07 145.822/145.860
RS-15 20 Dec 20:51:56 21:02:53 51° 54° (NE) 21:14:15 29.354- 29.394
ISS 20 Dec 20:56:11 20:59:22 48° 40° (NE) 21:02:32 145.825
COMPASS 1 20 Dec 20:58:38 21:02:48 68° 76° (ENE) 21:07:02 437.405
SEEDS 20 Dec 21:04:18 21:08:32 84° 258° (WSW) 21:12:49 437.485
CUSAT 1 20 Dec 21:04:24 21:12:26 80° 82° (E) 21:20:58 437.405
CUTE 1.7 + AOD 2 20 Dec 21:07:57 21:12:09 64° 259° (W) 21:16:25 437.475
FUNcube-1 20 Dec 21:08:15 21:10:33 15° 67° (ENE) 21:12:51 145.935
UWE-3 20 Dec 21:08:43 21:11:33 18° 69° (ENE) 21:14:25 435.000/436.395/437.385
BRITE-PL 20 Dec 21:09:19 21:13:27 55° 260° (W) 21:17:31 437.365/2234.400
DELFI C3 20 Dec 21:14:53 21:18:36 34° 73° (ENE) 21:22:20 145.870
DX 1 20 Dec 21:22:37 21:26:42 41° 73° (ENE) 21:30:47 434.975-435.025
AISAT 20 Dec 21:26:53 21:29:19 15° 67° (ENE) 21:31:44 437.250
SO-50 20 Dec 21:29:52 21:34:20 71° 300° (WNW) 21:38:58 436.795
GOMX 1 20 Dec 21:35:29 21:39:22 38° 261° (W) 21:43:15 467.674
HUMSAT D 20 Dec 21:40:23 21:43:22 20° 69° (ENE) 21:46:24 437.325/437.525
Oscar 11 20 Dec 21:44:37 21:48:56 81° 258° (WSW) 21:53:18 145.826/435.025
UKube-1 20 Dec 21:53:14 21:57:34 85° 257° (WSW) 22:01:55 .
HO-68 20 Dec 21:56:11 22:02:15 30° 263° (W) 22:08:22 435.675
DANDE 20 Dec 21:56:55 22:04:37 54° 267° (W) 22:12:59 436.750
AAUSAT CUBESAT 2 20 Dec 21:59:39 22:03:04 24° 264° (W) 22:06:30 437.432
DOVE 4 20 Dec 22:00:31 22:04:03 27° 263° (W) 22:07:36 437.250
CUBEBUG 2 20 Dec 22:05:48 22:09:57 75° 258° (WSW) 22:14:12 437.445
BEESAT 2 20 Dec 22:06:29 22:09:29 19° 52° (NE) 22:12:27 435.950
ZACube-1 20 Dec 22:15:36 22:19:46 82° 258° (WSW) 22:24:01 437.345
TIGRISAT 20 Dec 22:16:36 22:19:31 16° 94° (E) 22:22:24 435.000
VELOX 1 20 Dec 22:17:52 22:22:11 56° 75° (ENE) 22:26:31 145.980
ESTCUBE 1 20 Dec 22:21:51 22:25:26 24° 70° (ENE) 22:29:02 437.505/2401.250
CINEMA 3 20 Dec 22:24:39 22:28:04 25° 264° (W) 22:31:34 145.822/145.860
ISS 20 Dec 22:34:25 22:35:35 12° 234° (SW) 22:36:46 145.825
BUGSAT 1 20 Dec 22:42:17 22:44:11 13° 94° (E) 22:46:05 437.445
FUNcube-1 20 Dec 22:42:41 22:46:32 37° 262° (W) 22:50:28 145.935
DUCHIFAT 1 20 Dec 22:43:18 22:46:16 18° 95° (E) 22:49:14 145.980
UWE-3 20 Dec 22:44:12 22:47:51 29° 263° (W) 22:51:33 435.000/436.395/437.385
UNISAT 6 20 Dec 22:44:42 22:49:00 34° 98° (E) 22:53:17 437.425
CUSAT 1 20 Dec 22:49:24 22:54:48 20° 275° (W) 23:00:25 437.405
50 SAT 20 Dec 22:51:04 22:55:02 66° 259° (W) 22:59:03 437.505
DELFI C3 20 Dec 22:51:37 22:53:56 15° 266° (W) 22:56:16 145.870
YUBILEINY 20 Dec 22:54:38 23:00:20 20° 81° (E) 23:05:59 435.215
QB50P2 20 Dec 22:56:26 23:00:05 27° 97° (E) 23:03:44 145.880/145.840
DX 1 20 Dec 23:00:56 23:03:05 14° 266° (W) 23:05:15 434.975-435.025
AISAT 20 Dec 23:01:22 23:05:33 42° 261° (W) 23:09:44 437.250
PCSat 20 Dec 23:01:35 23:06:25 32° 57° (ENE) 23:11:12 145.827
BEESAT 3 20 Dec 23:03:38 23:07:48 89° 62° (ENE) 23:11:54 437.485
RS-15 20 Dec 23:04:37 23:15:01 43° 252° (WSW) 23:25:53 29.354- 29.394
POLYITAN 1 20 Dec 23:05:06 23:09:03 35° 98° (E) 23:12:59 437.675
CUBEBUG 1 20 Dec 23:06:19 23:10:40 72° 76° (ENE) 23:15:01 437.445
NANOSAT C BR1 20 Dec 23:07:08 23:11:04 36° 98° (E) 23:15:00 145.865
AIST 2 20 Dec 23:11:42 23:15:46 41° 57° (ENE) 23:19:46 435.215
HUMSAT D 20 Dec 23:15:31 23:18:59 26° 264° (W) 23:22:29 437.325/437.525
ANTELSAT 20 Dec 23:16:18 23:21:03 80° 102° (ESE) 23:25:46 437.575/2403.000
QB50P1 20 Dec 23:21:23 23:25:35 55° 100° (E) 23:29:46 145.935-145.965
BEESAT 2 20 Dec 23:44:01 23:47:48 34° 247° (WSW) 23:51:32 435.950
POPSAT HIP 1 20 Dec 23:50:06 23:54:19 65° 284° (WNW) 23:58:33 437.405
TIGRISAT 20 Dec 23:51:56 23:56:22 42° 287° (WNW) 00:00:48 435.000
ESTCUBE 1 20 Dec 23:58:19 00:02:09 27° 263° (W) 00:05:59 437.505/2401.250
VELOX 1 20 Dec 23:58:38 23:59:03 10° 268° (W) 23:59:28 145.980
